Ft. Stewart, GA

10:07 PM EDT on September 23, 2017 (GMT -0400)
Wright Army Air Field

Weather History for KLHW - March, 2013

Change the Weather History Date:

Tuesday, March 5, 2013

  Actual Average Record
Temperature  
Mean Temperature 54 °F -  
Max Temperature 71 °F 72 °F 86 °F (1976)
Min Temperature 37 °F 48 °F 26 °F (2002)
Degree Days  
Heating Degree Days 11    
Growing Degree Days 4 (Base 50)    
Moisture  
Dew Point 49 °F    
Average Humidity 74    
Maximum Humidity 100    
Minimum Humidity 34    
Precipitation  
Precipitation 0.14 in - - ()
Sea Level Pressure  
Sea Level Pressure 29.94 in    
Wind  
Wind Speed 8 mph (SW)    
Max Wind Speed 18 mph    
Max Gust Speed 29 mph    
Visibility 9 miles    
Events Rain    
Averages and records for this station are not official NWS values.
T = Trace of Precipitation, MM = Missing Value Source: NWS Daily Summary

Daily Weather History Graph

Daily Weather History Graph

Search for Another Location

Airport or City:

Trip Planner

Search our weather history database for the weather conditions in past years. The results will help you decide how hot, cold, wet, or windy it might be!

Date:

Astronomy

Mar. 05, 2013 Rise Set
Actual Time 6:48 AM EST 6:27 PM EST
Civil Twilight 6:24 AM EST 6:51 PM EST
Nautical Twilight 5:55 AM EST 7:20 PM EST
Astronomical Twilight 5:27 AM EST 7:48 PM EST
Moon 1:43 AM EST (3/5) 12:20 PM EST (3/5)
Length of Visible Light 12h 27m
Length of Day
11h 38m
Last Quarter, 41% of the Moon is Illuminated
Mar 5
Last Quarter
Mar 11
New
Mar 19
First Quarter
Mar 27
Full
Apr 3
Last Quarter

Hourly Weather History & Observations

Time (EST) Temp. Windchill Dew Point Humidity Pressure Visibility Wind Dir Wind Speed Gust Speed Precip Events Conditions
12:58 AM 46.9 °F - 37.9 °F 71% 30.09 in 10.0 mi South 3.5 mph - N/A   Mostly Cloudy
1:58 AM 44.4 °F - 39.6 °F 83% 30.12 in 10.0 mi NE 2.3 mph - N/A   Scattered Clouds
2:58 AM 41.5 °F - 38.5 °F 89% 30.11 in 10.0 mi ENE 2.3 mph - N/A   Overcast
3:58 AM 39.7 °F - 37.9 °F 93% 30.13 in 10.0 mi North 2.3 mph - N/A   Mostly Cloudy
4:58 AM 38.5 °F - 37.0 °F 95% 30.14 in 10.0 mi West 2.3 mph - N/A   Partly Cloudy
5:58 AM 37.4 °F - 36.1 °F 95% 30.14 in 10.0 mi Calm Calm - N/A   Scattered Clouds
6:58 AM 38.3 °F - 37.4 °F 97% 30.13 in 10.0 mi Calm Calm - N/A   Overcast
7:58 AM 43.0 °F 41.3 °F 37.4 °F 81% 30.13 in 10.0 mi SSE 3.5 mph - N/A   Overcast
8:58 AM 50.2 °F - 38.7 °F 65% 30.11 in 10.0 mi Variable 4.6 mph - N/A   Overcast
9:58 AM 57.2 °F - 37.4 °F 48% 30.11 in 10.0 mi SSW 5.8 mph - N/A   Overcast
10:58 AM 63.5 °F - 35.2 °F 35% 30.09 in 10.0 mi SSW 9.2 mph - N/A   Overcast
11:58 AM 66.7 °F - 37.8 °F 34% 30.06 in 10.0 mi SW 10.4 mph - N/A   Mostly Cloudy
12:58 PM 67.5 °F - 41.9 °F 39% 30.02 in 10.0 mi South 8.1 mph - N/A   Overcast
1:58 PM 68.0 °F - 45.7 °F 45% 29.98 in 10.0 mi SSW 15.0 mph 18.4 mph N/A   Overcast
2:58 PM 67.6 °F - 48.6 °F 50% 29.95 in 10.0 mi SSW 10.4 mph 19.6 mph N/A   Overcast
3:58 PM 70.3 °F - 50.0 °F 48% 29.92 in 10.0 mi SSW 8.1 mph - N/A   Overcast
4:58 PM 71.6 °F - 52.3 °F 51% 29.87 in 10.0 mi SSW 11.5 mph 24.2 mph N/A   Mostly Cloudy
5:58 PM 70.3 °F - 53.6 °F 55% 29.87 in 10.0 mi SSW 12.7 mph 20.7 mph N/A   Overcast
6:58 PM 68.5 °F - 54.0 °F 60% 29.84 in 10.0 mi SSW 8.1 mph 18.4 mph N/A   Clear
7:58 PM 67.5 °F - 54.3 °F 63% 29.81 in 10.0 mi SSW 13.8 mph 26.5 mph N/A   Clear
8:58 PM 67.3 °F - 55.4 °F 66% 29.81 in 10.0 mi SSW 15.0 mph 26.5 mph N/A   Overcast
9:53 PM 66.2 °F - 57.2 °F 73% 29.79 in 10.0 mi SW 18.4 mph 27.6 mph N/A Rain Light Rain
9:58 PM 66.9 °F - 56.5 °F 69% 29.81 in 10.0 mi WSW 18.4 mph 28.8 mph 0.00 in Rain Light Rain
9:59 PM 66.2 °F - 57.2 °F 73% 29.81 in 10.0 mi West 16.1 mph 28.8 mph N/A Rain Light Rain
10:04 PM 66.2 °F - 59.0 °F 78% 29.83 in 4.0 mi WNW 18.4 mph 28.8 mph N/A Rain Heavy Rain
10:09 PM 62.6 °F - 59.0 °F 88% 29.82 in 3.0 mi West 16.1 mph 24.2 mph N/A Rain Heavy Rain
10:14 PM 62.6 °F - 59.0 °F 88% 29.82 in 4.0 mi West 13.8 mph - N/A Rain Light Rain
10:19 PM 60.8 °F - 59.0 °F 94% 29.83 in 10.0 mi West 12.7 mph - N/A Rain Light Rain
10:20 PM 60.8 °F - 59.0 °F 94% 29.83 in 10.0 mi West 15.0 mph - N/A   Overcast
10:27 PM 60.8 °F - 59.0 °F 94% 29.84 in 9.0 mi West 18.4 mph 21.9 mph N/A Rain Light Rain
10:32 PM 60.8 °F - 59.0 °F 94% 29.83 in 5.0 mi West 17.3 mph 21.9 mph N/A Rain Heavy Rain
10:42 PM 59.0 °F - 59.0 °F 100% 29.83 in 10.0 mi West 12.7 mph 23.0 mph N/A Rain Light Rain
10:45 PM 59.0 °F - 59.0 °F 100% 29.83 in 10.0 mi West 10.4 mph - N/A   Overcast
10:58 PM 59.5 °F - 57.7 °F 94% 29.84 in 10.0 mi West 16.1 mph 23.0 mph 0.14 in   Mostly Cloudy
11:58 PM 57.2 °F - 51.6 °F 82% 29.84 in 10.0 mi West 16.1 mph 24.2 mph N/A   Scattered Clouds